Lapse_Rate
8.7 8.3 7.7 7.4 7.5 7.3 7.3 7.3 7.2 6.9 6.6 6.4 6.3 6.4 6.4 6.4 6.3 6.3 6.0 5.8 5.5 5.3 5.2 5.2 5.2 5.0 5.2 5.1 4.9 4.9 5.3 5.5
8.1 8.1 7.9 7.9 7.5 7.4 7.3 7.3 7.2 7.0 6.8 6.6 6.5 6.5 6.4 6.3 6.2 6.1 6.1 5.9 5.7 5.4 5.3 5.2 5.3 5.3 5.3 5.2 5.1 5.5 5.7 5.9
7.8 7.8 7.7 7.6 7.4 7.7 7.4 7.2 7.0 6.8 6.6 6.5 6.4 6.4 6.5 6.6 6.6 6.5 6.4 6.2 5.9 5.5 5.4 5.4 5.3 5.3 5.3 5.2 5.6 5.8 5.9 6.1
7.8 7.6 7.6 7.5 7.5 7.4 7.4 7.1 6.8 6.6 6.7 6.7 6.8 6.9 6.9 6.9 6.8 6.7 6.6 6.5 6.3 6.0 5.8 5.8 5.4 5.3 5.4 5.7 5.7 5.8 6.0 6.1
7.6 7.6 7.7 7.7 7.4 7.1 7.0 7.2 7.0 6.7 6.9 7.0 7.0 6.9 6.8 6.9 7.0 6.9 6.7 6.7 6.7 6.3 6.2 5.9 5.6 5.5 5.7 5.8 5.8 5.8 5.9 6.0
8.2 8.0 7.8 7.7 7.4 7.3 7.0 7.0 7.1 7.0 7.2 7.2 7.1 7.0 7.1 7.2 7.1 6.9 7.0 6.9 6.8 6.5 6.3 6.0 5.7 5.8 5.9 5.9 5.9 5.9 5.9 5.9
7.7 7.9 7.8 7.3 7.1 7.0 6.9 6.8 6.9 7.1 7.0 7.2 7.3 7.2 7.3 7.1 7.0 7.1 7.1 7.0 6.8 6.5 6.3 6.0 5.8 5.9 6.0 6.0 5.9 6.0 6.0 6.0
7.9 7.8 7.8 7.5 7.4 7.3 7.0 7.1 7.0 7.2 7.4 7.5 7.4 7.2 7.1 7.0 7.0 7.0 7.0 6.9 6.8 6.5 6.3 6.1 6.2 6.1 6.1 6.0 6.0 6.2 6.3 6.4
8.3 8.2 7.7 8.0 7.8 7.8 7.5 7.5 7.5 7.4 7.4 7.5 7.3 7.2 7.0 7.0 7.0 7.2 6.9 6.7 6.6 6.4 6.2 6.3 6.3 6.2 6.3 6.1 6.0 6.2 6.3 6.4
8.1 8.0 8.2 8.2 8.2 8.0 8.0 7.7 7.4 7.2 7.3 7.3 7.3 7.0 7.1 7.2 7.0 6.9 7.5 7.0 6.7 6.4 6.5 6.4 6.4 6.4 6.4 6.3 6.2 6.3 6.4 6.4
8.3 8.0 8.2 8.1 8.0 7.8 7.8 7.6 7.2 7.1 7.0 7.3 7.3 7.1 7.2 7.1 7.1 7.1 7.2 7.1 6.9 6.7 6.6 6.3 6.4 6.4 6.4 6.3 6.2 6.3 6.5 6.5
8.5 8.6 8.2 7.9 7.6 7.8 7.9 7.8 7.7 7.5 7.2 7.2 7.4 7.2 7.4 7.5 7.3 7.2 7.1 7.1 7.0 6.8 6.5 6.5 6.4 6.4 6.3 6.2 6.3 6.3 6.3 6.3
8.2 8.2 8.4 8.2 7.7 7.7 7.9 8.0 7.9 7.7 7.3 7.0 7.3 7.4 7.5 7.4 7.3 7.0 7.2 7.2 7.2 7.0 6.7 6.5 6.4 6.4 6.3 6.2 6.2 6.3 6.2 6.3
8.1 8.0 8.1 8.5 8.3 7.9 7.8 7.8 7.7 7.6 7.3 7.2 7.2 7.1 7.6 7.4 7.2 7.2 6.9 6.8 6.9 6.7 6.5 6.5 6.4 6.3 6.1 6.1 6.1 6.2 6.2 6.1
8.1 8.1 8.4 8.5 8.7 8.2 8.1 7.8 7.8 7.9 7.3 7.1 6.9 7.0 7.2 7.1 7.0 7.1 6.8 6.4 6.6 6.5 6.4 6.5 6.2 6.2 6.1 6.0 6.1 6.1 6.1 6.0
8.3 8.3 8.4 8.6 8.6 8.4 8.0 7.7 7.5 7.7 6.8 7.2 6.8 6.7 6.7 6.6 6.8 6.8 6.6 6.5 6.5 6.2 6.3 6.4 6.3 6.1 6.0 5.9 6.0 6.0 6.0 5.9
8.5 8.9 8.3 8.0 8.1 8.2 8.1 7.5 7.5 7.5 6.8 6.8 6.9 6.7 6.5 6.7 7.1 7.0 6.7 6.6 6.6 6.3 6.2 6.2 6.2 6.0 6.0 5.9 6.0 6.0 5.8 5.7
7.9 8.3 8.4 8.2 8.0 7.7 7.5 7.3 6.9 6.8 6.5 6.4 6.2 6.7 6.4 6.6 6.7 6.9 7.0 6.9 6.7 6.5 6.4 6.3 6.1 6.0 6.1 6.0 6.0 5.9 5.8 5.7
7.4 7.9 7.9 7.7 8.0 7.9 7.5 7.2 7.0 6.6 6.4 6.3 5.3 6.1 6.4 6.4 6.4 6.5 6.7 6.6 6.6 6.4 6.4 6.3 6.1 6.0 6.1 6.0 5.9 5.8 5.7 5.7
Wind_Speed
18 18 16 14 11 11 10 8 9 8 7 5 5 5 6 9 8 10 12 13 14 13 10 8 8 4 4 4 5 5 4 8
8 13 13 13 11 12 13 13 10 10 6 4 3 4 2 3 7 10 12 13 13 13 9 8 8 4 4 3 3 7 6 3
13 13 13 15 15 13 11 12 12 8 7 3 3 3 2 3 5 9 11 13 13 11 9 5 6 4 6 5 4 3 3 4
15 16 16 15 16 16 15 14 11 7 8 7 4 4 4 2 2 3 4 12 13 13 12 10 7 5 4 3 3 5 4 4
14 17 15 18 17 13 12 12 11 9 11 8 12 5 5 3 3 3 3 12 13 14 13 12 9 7 6 4 3 3 4 4
20 21 21 18 14 14 12 12 12 11 9 10 8 7 3 4 4 6 5 6 12 13 14 13 8 8 6 6 6 6 3 3
18 17 13 11 9 11 12 14 12 11 11 10 10 12 10 8 6 5 4 3 4 10 13 13 12 9 6 6 7 8 7 7
17 18 17 15 14 13 11 13 12 11 12 11 11 11 11 11 10 7 7 4 3 5 9 7 7 10 11 11 7 8 6 7
22 23 19 18 19 18 17 18 16 15 13 12 11 12 7 7 6 7 5 4 4 7 10 12 12 13 12 12 9 7 8 7
18 18 18 19 19 22 22 19 16 16 16 12 11 11 10 9 9 6 4 5 4 8 11 10 11 12 12 12 7 8 8 7
19 17 19 18 16 13 13 14 13 13 11 12 11 10 10 10 9 9 8 6 7 8 8 9 9 11 12 12 8 7 9 6
16 16 14 15 12 11 11 12 14 12 12 11 12 11 12 12 10 10 10 8 9 9 8 8 8 8 9 8 7 7 8 7
10 14 15 15 16 15 15 14 14 14 13 12 14 13 13 13 12 10 9 10 10 10 10 8 8 8 8 8 8 7 7 7
8 9 15 16 15 14 14 13 11 10 12 12 11 12 13 13 13 13 10 10 8 9 8 9 8 7 7 6 7 7 6 6
7 8 10 12 12 14 14 13 13 13 12 13 13 12 13 13 12 13 12 11 10 8 8 8 8 6 7 6 7 7 7 6
18 6 1 9 11 13 14 13 13 14 14 13 13 11 11 12 13 12 11 12 10 8 9 7 7 6 6 7 7 7 8 7
17 15 5 2 6 12 14 14 15 16 15 14 13 13 13 13 13 13 12 11 11 10 9 9 7 5 12 15 11 8 8 8
17 14 12 5 8 12 15 16 14 15 15 12 13 15 15 13 13 14 13 13 11 9 9 9 7 6 11 14 17 7 8 7
17 16 14 13 8 10 12 14 16 16 15 17 14 14 16 14 13 14 13 10 11 10 9 8 8 5 12 13 17 10 6 6
Wind_Direction
179 177 177 172 152 153 142 131 125 114 106 95 80 81 80 98 98 105 107 109 110 103 97 95 102 97 89 76 83 58 94 110
154 153 150 142 143 148 153 146 149 138 133 120 96 115 99 73 79 102 108 112 111 108 100 88 83 89 110 96 83 98 78 78
155 155 157 164 160 162 160 158 160 157 145 128 125 139 99 107 106 96 107 109 110 100 103 91 82 92 81 66 74 111 82 22
165 168 173 169 170 170 168 167 166 154 134 119 95 87 81 79 65 80 92 111 108 108 101 97 86 83 87 81 92 100 123 35
171 176 178 179 179 170 166 162 164 159 155 141 157 156 155 163 137 121 99 112 107 109 106 100 92 88 83 79 62 86 102 119
180 185 186 185 170 169 164 168 171 167 166 159 153 139 119 121 119 117 106 95 106 106 107 101 91 87 83 82 72 73 65 98
192 189 175 182 176 172 175 176 179 171 165 165 160 148 147 143 143 129 125 108 102 110 109 103 99 93 88 91 83 76 77 75
189 186 185 182 181 184 177 182 181 172 167 166 157 153 155 155 153 146 142 132 115 121 113 104 98 99 93 90 89 85 74 87
196 199 190 183 179 183 184 183 179 174 164 159 153 150 152 152 151 147 139 134 134 135 116 114 111 106 100 95 93 91 86 81
208 205 200 188 187 188 186 182 179 173 164 155 155 149 149 156 143 130 134 127 130 120 117 114 111 110 107 104 100 100 91 89
212 205 200 199 197 190 183 183 177 168 157 160 156 149 145 144 144 140 144 137 126 130 120 120 120 117 114 110 108 97 104 96
214 205 189 185 177 180 174 175 163 163 160 162 156 152 147 147 146 148 149 135 140 138 132 131 131 127 122 112 114 108 101 104
206 195 172 178 174 170 172 169 169 169 162 160 160 151 150 148 146 150 149 145 138 140 137 132 134 132 125 129 127 117 120 115
218 182 184 180 176 171 171 169 168 159 148 147 150 151 153 153 152 148 148 142 134 136 132 136 140 136 129 121 126 125 114 109
228 174 173 174 169 168 166 162 151 150 151 150 151 157 158 154 151 148 146 143 137 135 134 133 138 134 133 132 128 121 113 105
357 358 232 166 162 161 155 152 162 163 162 155 156 150 150 148 147 148 143 143 140 137 130 127 130 135 142 136 130 123 120 114
355 355 358 247 186 164 162 165 169 168 167 161 152 148 148 154 153 148 145 140 141 140 141 142 135 134 136 141 133 131 134 135
346 344 337 251 203 184 181 173 168 169 164 155 164 160 155 157 155 151 149 151 147 150 145 143 142 137 139 140 139 136 142 144
341 333 324 305 231 210 188 182 173 172 171 157 171 170 157 155 156 155 151 152 156 156 151 152 145 155 152 147 140 131 122 130